Find Starlink 6299

NORAD ID: 57358 Int'l Des: 2023-099 Owner: SPXS Country: US Constellation: starlink operational
LEOCIRCULAR

Live-Position

3D-Globus wird geladen...

Über Starlink 6299

Beschreibung wird geladen...

Nächste Überflüge

Passes for default location (London). Set your location on the main map for personalized predictions.

Höhenverlauf

Loading altitude history...

Zweizeiliger Elementsatz

1 57358U 23099AG 26106.76808581 -.00007886 00000-0 -29159-3 0 9999
2 57358 43.0058 25.7167 0000698 275.9465 84.1306 15.25950626152774
Epoch: 16. Apr. 2026 • Age: 15 hours

Aktueller Status

Höhe 491.0 km
Geschwindigkeit 7.62 km/s
Subsatellitenpunkt 40.41°N, 155.89°E
Startdatum 16. Juli 2023
Alter 2.7 years
Typ internet

Technische Details

Klassifizierung Payload
Masse 305.00 kg
Trockenmasse 290.00 kg
Gesamtmasse 305.00 kg
Länge 0.20 m
Durchmesser 2.80 m
Spannweite 9.00 m
Form Box + pan
Hersteller SPXS
Bus-Typ Starlink
Phasenstatus In Orbit
Besitzer/Staat SPXS/US

Most Searched